Flag for Portugal Weather past 2 weeks in Lisbon, Portugal

Now
48 °F

Clear.


Feels Like: 42 °F
Forecast: 45 / 59 °F
Wind: 15 mph from Northwest

Location: Lisbon Portela Airport

Current Time: Jan 26, 2015 at 7:10:11 AM

Latest Report: Jan 26, 2015 at 6:30 AM


Visibility: 10 mi

Pressure: 30.36 "Hg

Humidity: 94%

Dew point: 46 °F

Location of LisbonLocation

Historic Weather in Lisbon — Graph

°F

Lisbon temperature yesterday

Maximum temperature yesterday: 63 °F (at 12:30 PM)
Minimum temperature yesterday: 39 °F (at 5:00 AM)
Average temperature yesterday: 52 °F

Past Weeks' High & Low Weather Summary

 TemperatureHumidityPressure
High64 °F (Jan 11, 4:30 PM)100% (Jan 12, 1:30 AM)30.51 "Hg (Jan 12, 1:30 AM)
Low39 °F (Jan 25, 5:00 AM)47% (Jan 19, 2:30 PM)29.80 "Hg (Jan 18, 3:30 AM)
Average51 °F83%30.20 "Hg
* Reported Jan 11 6:00 AM — Jan 26 6:00 AM, Lisbon, Weather by CustomWeather, © 2014

Note: Actual official high and low records may vary slightly from our data, if they occured in-between our weather recording intervals... More about our weather records

Advertising

Lisbon weather history for previous 24 hours

 ConditionsComfort  
Time TempWeatherWind HumidityBarometerVisibility
6:00 AM
Jan 26
48 °FClear.16 mph87%30.36 "Hg10 mi
5:30 AM48 °FPassing clouds.5 mph82%30.36 "HgN/A
5:00 AM50 °FClear.9 mph76%30.36 "Hg10 mi
4:30 AM48 °FPassing clouds.5 mph76%30.36 "HgN/A
4:00 AM50 °FClear.8 mph76%30.36 "Hg10 mi
3:00 AM50 °FClear.9 mph76%30.36 "Hg10 mi
2:30 AM50 °FClear.8 mph76%30.36 "Hg10 mi
2:00 AM50 °FClear.10 mph82%30.36 "Hg10 mi
1:30 AM50 °FClear.12 mph82%30.36 "Hg10 mi
1:00 AM50 °FClear.10 mph88%30.36 "Hg10 mi
12:30 AM50 °FClear.9 mph88%30.39 "Hg10 mi
12:00 AM50 °FClear.9 mph82%30.39 "Hg10 mi
11:30 PM
Jan 25
50 °FClear.8 mph82%30.39 "Hg10 mi
11:00 PM50 °FPassing clouds.7 mph82%30.39 "HgN/A
10:30 PM52 °FClear.10 mph77%30.36 "Hg10 mi
10:00 PM50 °FClear.8 mph82%30.36 "Hg10 mi
9:30 PM52 °FPassing clouds.6 mph77%30.36 "HgN/A
9:00 PM52 °FClear.9 mph77%30.36 "Hg10 mi
8:30 PM54 °FClear.12 mph72%30.36 "Hg10 mi
8:00 PM54 °FClear.10 mph72%30.36 "Hg10 mi
7:30 PM54 °FClear.10 mph72%30.36 "Hg10 mi
7:00 PM54 °FClear.12 mph72%30.36 "Hg10 mi
6:30 PM55 °FClear.13 mph67%30.33 "Hg10 mi
6:00 PM57 °FClear.9 mph63%30.33 "Hg10 mi
5:30 PM59 °FSunny.12 mph55%30.33 "Hg10 mi
5:00 PM61 °FSunny.10 mph52%30.33 "Hg10 mi
4:30 PM61 °FSunny.10 mph52%30.33 "Hg10 mi
4:00 PM63 °FSunny.13 mph52%30.33 "Hg10 mi
3:30 PM63 °FSunny.10 mph52%30.33 "Hg10 mi
3:00 PM63 °FPassing clouds.10 mph49%30.33 "HgN/A
2:30 PM63 °FSunny.13 mph49%30.36 "Hg10 mi
2:00 PM63 °FPassing clouds.10 mph49%30.36 "HgN/A
1:30 PM63 °FPassing clouds.6 mph52%30.36 "HgN/A
1:00 PM61 °FPassing clouds.7 mph59%30.39 "HgN/A
12:30 PM63 °FSunny.7 mph49%30.39 "Hg10 mi
12:00 PM59 °FPassing clouds.5 mph55%30.42 "HgN/A
11:30 AM57 °FPassing clouds.3 mph67%30.42 "HgN/A
11:00 AM55 °FPassing clouds.3 mph63%30.42 "HgN/A
10:30 AM52 °FSunny.6 mph72%30.42 "Hg10 mi
10:00 AM54 °FPassing clouds.5 mph67%30.42 "HgN/A
9:30 AM52 °FSunny.1 mph82%30.42 "Hg10 mi
9:00 AM46 °FSunny.5 mph82%30.42 "Hg10 mi
8:30 AM43 °FSunny.1 mph87%30.39 "Hg10 mi
8:00 AM41 °FPassing clouds.6 mph87%30.39 "HgN/A
7:30 AM46 °FClear.5 mph71%30.39 "Hg10 mi
7:00 AM43 °FPassing clouds.3 mph87%30.39 "HgN/A
Weather by CustomWeather, © 2014

See weather overviewHow to use our weather pages